Weather History for KPSF - April, 2014

Change the Weather History Date:

Wednesday, April 16, 2014

  Actual Average Record
Temperature  
Mean Temperature 30 °F 44 °F  
Max Temperature 37 °F 55 °F 86 °F (2012)
Min Temperature 22 °F 34 °F 13 °F (1943)
Degree Days  
Heating Degree Days 35 21  
Month to date heating degree days 335 381  
Since 1 July heating degree days 7118 6788  
Cooling Degree Days 0 0  
Month to date cooling degree days 1 0  
Year to date cooling degree days 1 0  
Moisture  
Dew Point 16 °F    
Average Humidity 60    
Maximum Humidity 81    
Minimum Humidity 39    
Precipitation  
Precipitation T in 0.12 in 0.99 in (2007)
Month to date precipitation 1.73 2.41  
Year to date precipitation 11.24 11.38  
Sea Level Pressure  
Sea Level Pressure 30.18 in    
Wind  
Wind Speed 10 mph (NW)    
Max Wind Speed 29 mph    
Max Gust Speed 44 mph    
Visibility 8 miles    
Events Fog , Snow    
T = Trace of Precipitation, MM = Missing Value Source: NWS Daily Summary

Daily Weather History Graph

Daily Weather History Graph

Search for Another Location

Airport or City:

Trip Planner

Search our weather history database for the weather conditions in past years. The results will help you decide how hot, cold, wet, or windy it might be!

Date:

Astronomy

Apr. 16, 2014 Rise Set
Actual Time 6:10 AM EDT 7:36 PM EDT
Civil Twilight 5:41 AM EDT 8:05 PM EDT
Nautical Twilight 5:06 AM EDT 8:40 PM EDT
Astronomical Twilight 4:28 AM EDT 9:18 PM EDT
Moon 9:18 PM EDT (4/16) 6:54 AM EDT (4/16)
Length of Visible Light 14h 24m
Length of Day
13h 25m
Full, 98% of the Moon is Illuminated
Apr 16
Full
Apr 22
Last Quarter
Apr 29
New
May 6
First Quarter
May 14
Full

Hourly Weather History & Observations

Time (EDT) Temp. Windchill Dew Point Humidity Pressure Visibility Wind Dir Wind Speed Gust Speed Precip Events Conditions
12:05 AM 26.1 °F 13.1 °F 23.0 °F 88% 29.85 in 0.5 mi WNW 17.3 mph 28.8 mph 0.01 in Fog , Snow Snow
12:23 AM 26.1 °F 11.3 °F 21.9 °F 84% 29.86 in 0.5 mi WNW 23.0 mph 33.4 mph 0.01 in Fog , Snow Snow
12:32 AM 25.0 °F 11.3 °F 21.9 °F 88% 29.86 in 0.2 mi WNW 18.4 mph 33.4 mph 0.01 in Fog , Snow Heavy Snow
12:52 AM 24.8 °F 9.3 °F 21.2 °F 86% 29.87 in 0.8 mi WNW 24.2 mph 38.0 mph 0.02 in Snow Light Snow
12:54 AM 26.1 °F 11.0 °F 21.9 °F 84% 29.88 in 1.0 mi WNW 24.2 mph 38.0 mph 0.02 in Snow Light Snow
12:58 AM 26.1 °F 10.7 °F 21.9 °F 84% 29.88 in 2.0 mi WNW 25.3 mph 38.0 mph 0.00 in Snow Light Snow
1:09 AM 26.1 °F 12.7 °F 21.0 °F 81% 29.87 in 5.0 mi WNW 18.4 mph 32.2 mph 0.00 in   Haze
1:38 AM 26.1 °F 13.1 °F 21.0 °F 81% 29.88 in 7.0 mi WNW 17.3 mph 31.1 mph 0.00 in   Overcast
1:54 AM 26.1 °F 12.0 °F 19.9 °F 78% 29.87 in 7.0 mi WNW 20.7 mph 36.8 mph 0.00 in   Overcast
2:54 AM 25.0 °F 10.2 °F 19.0 °F 78% 29.89 in 9.0 mi WNW 21.9 mph 31.1 mph 0.00 in   Overcast
3:54 AM 25.0 °F 11.3 °F 19.0 °F 78% 29.96 in 9.0 mi WNW 18.4 mph 27.6 mph N/A   Overcast
4:41 AM 25.0 °F 14.2 °F 19.0 °F 78% 29.99 in 10.0 mi NW 11.5 mph 21.9 mph 0.00 in   Overcast
4:54 AM 25.0 °F 14.2 °F 19.0 °F 78% 30.03 in 5.0 mi NW 11.5 mph 19.6 mph 0.00 in Snow Light Snow
5:37 AM 24.1 °F 12.5 °F 16.0 °F 71% 30.01 in 10.0 mi NW 12.7 mph 27.6 mph 0.00 in   Mostly Cloudy
5:54 AM 23.0 °F 9.6 °F 14.0 °F 68% 30.06 in 10.0 mi NW 16.1 mph 28.8 mph 0.00 in   Partly Cloudy
6:54 AM 21.9 °F 11.0 °F 10.9 °F 63% 30.15 in 10.0 mi NW 10.4 mph - N/A   Clear
7:54 AM 24.1 °F 12.5 °F 10.9 °F 57% 30.22 in 10.0 mi NW 12.7 mph 23.0 mph N/A   Clear
8:54 AM 25.0 °F 12.6 °F 9.0 °F 51% 30.25 in 10.0 mi NW 15.0 mph 24.2 mph N/A   Clear
9:54 AM 26.1 °F 15.0 °F 9.0 °F 49% 30.28 in 10.0 mi NW 12.7 mph 27.6 mph N/A   Clear
10:54 AM 27.0 °F 16.7 °F 10.0 °F 49% 30.33 in 10.0 mi WNW 11.5 mph 25.3 mph N/A   Clear
11:54 AM 28.0 °F 16.5 °F 10.0 °F 47% 30.36 in 10.0 mi WNW 15.0 mph 27.6 mph N/A   Clear
12:54 PM 30.9 °F 22.8 °F 9.0 °F 40% 30.37 in 10.0 mi NW 9.2 mph 21.9 mph N/A   Clear
1:54 PM 33.1 °F 24.9 °F 12.9 °F 43% 30.39 in 10.0 mi NW 10.4 mph 21.9 mph N/A   Clear
2:54 PM 34.0 °F 24.6 °F 14.0 °F 44% 30.41 in 10.0 mi WNW 13.8 mph 19.6 mph N/A   Clear
3:54 PM 35.1 °F 30.1 °F 14.0 °F 42% 30.41 in 10.0 mi NW 5.8 mph 17.3 mph N/A   Clear
4:54 PM 37.0 °F 30.4 °F 15.1 °F 41% 30.43 in 10.0 mi NNW 9.2 mph - N/A   Clear
5:54 PM 36.0 °F 29.6 °F 15.1 °F 43% 30.44 in 10.0 mi NW 8.1 mph - N/A   Clear
6:54 PM 35.1 °F 29.3 °F 16.0 °F 46% 30.47 in 10.0 mi WNW 6.9 mph - N/A   Clear
7:54 PM 33.1 °F 26.1 °F 15.1 °F 48% 30.49 in 10.0 mi West 8.1 mph - N/A   Clear
8:54 PM 30.0 °F 24.1 °F 15.1 °F 54% 30.53 in 10.0 mi WNW 5.8 mph - N/A   Clear
9:54 PM 28.9 °F 23.9 °F 16.0 °F 58% 30.56 in 10.0 mi West 4.6 mph - N/A   Clear
10:54 PM 28.0 °F - 16.0 °F 61% 30.57 in 10.0 mi Calm Calm - N/A   Clear
11:54 PM 28.0 °F - 16.0 °F 61% 30.57 in 10.0 mi Calm Calm - N/A   Clear